JCSAT-17

Last updated on Thu Dec 18 2025 00:02:51 GMT+0000 (Coordinated Universal Time)

1 45245U 20013A 25351.53054981 -.00000294 00000+0 00000+0 0 9991 2 45245 5.4027 355.0752 0003331 284.6099 133.7275 1.00271108 21411
UTC large
Height (km)
Speed (km/s)
/
Latitude / Longitude
Inclination (degrees)
Orbital Period (minutes)
Azimuth
Elevation
Range (km)
Doppler Factor

Next 0 passes for location: London (51.5072 / 0.1276)

Sorry there are no passes over London.